Wind_Speed
18 18 15 16 19 23 22 17 15 16 17 21 19 19 18 13 10 7 6 5 5 7 8 8 9 8 6 6 6 6 6 5 5 4 7 9 10 10 10 10 11 10 10
21 24 25 17 17 18 19 18 18 21 19 20 20 20 19 17 12 9 7 6 8 9 10 10 10 9 10 10 11 11 9 7 5 6 5 7 8 9 10 9 10 10 10
26 28 31 25 27 23 20 23 21 20 20 19 21 23 21 19 15 12 11 11 12 12 11 9 9 9 10 10 11 11 10 9 8 6 6 5 6 10 9 8 8 8 7
29 31 34 35 31 28 25 25 25 22 22 21 22 23 22 20 15 14 16 18 16 14 13 10 10 8 8 9 9 8 7 8 7 7 7 6 5 6 8 11 11 11 8
37 39 32 33 30 31 28 25 24 24 22 20 20 21 24 21 18 18 17 18 16 16 12 10 9 8 10 9 8 8 7 8 7 7 6 6 8 9 10 10 11 12 10
34 34 28 30 33 34 32 30 26 23 22 23 22 21 22 17 19 17 19 15 15 15 13 11 10 9 9 10 9 9 8 5 4 4 4 6 6 7 9 11 11 12 12
29 23 26 29 25 29 31 29 25 28 25 21 20 22 21 17 21 21 19 16 17 15 14 12 10 9 9 7 6 4 3 2 2 3 4 5 7 8 10 12 11 11 13
31 22 17 25 30 33 31 28 25 25 24 20 20 22 22 19 25 24 22 20 19 17 15 12 9 7 5 3 3 2 2 2 2 3 5 7 7 9 9 10 11 12 15
26 24 24 26 31 33 35 32 29 26 22 22 24 23 20 21 25 25 22 19 19 17 14 11 8 5 2 1 3 4 3 1 4 4 4 7 11 11 10 9 13 15 17
26 24 22 24 30 32 29 31 31 29 25 22 24 22 20 22 26 27 23 19 18 15 12 11 9 6 3 2 4 5 5 4 4 3 5 9 11 9 9 7 10 13 15
20 23 24 20 19 15 17 23 29 25 22 21 21 20 21 21 26 26 25 19 18 16 13 11 9 8 5 3 6 6 5 6 2 5 8 9 9 8 8 8 7 9 13
19 17 21 22 23 23 15 10 11 20 22 21 20 17 18 19 25 25 23 18 16 13 11 10 10 10 5 4 5 6 6 4 3 5 8 9 10 11 11 8 9 11 13
24 27 28 32 31 35 14 27 16 12 15 21 22 19 18 18 20 24 22 19 16 11 10 11 12 8 5 5 7 6 5 4 4 7 9 10 10 11 10 10 11 13 17
25 31 34 35 37 30 30 42 30 24 13 17 22 22 22 22 22 21 21 18 16 13 12 12 10 7 6 4 5 6 6 5 5 7 8 10 10 12 11 11 14 17 21
16 23 25 25 28 23 25 35 35 27 33 33 26 26 26 24 27 27 25 20 17 15 13 8 7 6 5 4 3 4 6 6 6 7 8 11 14 14 13 12 14 17 19
12 18 21 23 22 22 29 23 18 25 36 35 29 26 25 27 27 29 26 21 18 17 11 10 8 7 7 6 5 5 5 7 6 6 8 10 13 13 13 14 15 17 20
16 20 24 28 24 27 25 28 28 20 25 30 30 27 24 27 27 28 24 20 17 16 12 11 9 8 7 7 7 7 7 6 8 7 8 10 12 13 13 15 17 19 20
13 20 23 24 22 22 25 28 31 30 22 19 19 20 19 19 22 25 23 21 18 17 15 12 10 9 8 8 9 9 9 8 8 8 9 10 11 13 14 15 16 19 20
9 13 19 19 18 19 19 21 28 27 23 22 20 20 21 21 21 23 23 19 16 17 17 14 11 9 9 9 10 10 10 9 9 9 9 10 11 12 15 15 17 18 18
13 19 21 18 17 20 20 22 24 24 23 22 22 21 24 25 20 20 22 18 16 17 14 12 10 10 10 11 11 11 10 9 9 9 9 10 11 12 14 16 17 18 17
20 21 21 19 19 20 19 19 21 22 22 21 21 23 29 24 21 20 19 17 18 15 13 11 10 10 10 10 10 10 10 9 9 9 9 9 10 12 14 15 16 16 16
22 21 18 16 20 20 20 20 21 22 22 22 20 19 26 20 17 16 16 17 16 14 11 12 11 10 10 10 9 9 10 10 9 9 8 8 9 12 13 15 15 15 16
24 22 18 19 22 19 20 19 19 20 21 20 19 18 22 18 15 16 17 16 14 14 13 13 11 10 10 9 9 10 10 10 9 8 8 8 9 12 13 14 14 14 14
25 23 21 20 20 22 20 19 18 19 19 18 19 19 19 19 19 19 17 15 14 15 14 13 13 12 10 9 10 11 11 10 9 7 8 7 9 11 12 12 12 13 14
18 20 18 20 21 20 19 18 17 17 17 18 18 18 18 18 17 16 15 15 15 15 16 13 11 11 10 10 11 11 11 12 10 8 8 8 8 10 11 11 12 13 14
17 17 18 19 19 19 20 19 19 18 18 17 17 16 15 15 13 13 13 14 14 14 12 11 11 10 11 11 12 11 13 11 11 9 8 9 8 9 9 11 12 13 13
Wind_Direction
188 197 195 204 202 209 219 211 200 182 180 178 177 166 163 167 168 175 163 150 138 125 116 106 99 87 77 71 62 68 70 67 101 89 54 36 39 43 45 44 38 41 30
179 188 201 191 211 207 208 203 185 179 179 181 183 182 172 164 167 176 163 155 138 127 117 109 98 86 73 72 69 68 66 63 96 101 69 54 50 35 37 31 34 33 36
184 193 207 214 195 202 206 190 183 182 183 183 182 183 177 167 165 181 165 151 142 135 124 115 105 96 85 76 71 68 65 70 72 78 62 40 32 24 16 13 13 14 12
181 196 205 204 209 202 191 187 185 186 188 188 183 180 176 165 168 181 167 154 145 135 122 115 103 94 92 88 81 73 69 73 76 75 68 46 28 7 12 8 14 7 0
185 193 202 202 206 190 182 178 182 185 183 179 172 174 170 174 174 179 169 151 144 129 123 114 104 101 96 95 80 80 75 82 76 67 51 33 20 9 4 347 341 343 346
197 196 190 192 184 181 178 179 186 183 172 170 170 168 172 171 182 180 165 155 145 137 135 127 119 110 105 99 87 80 75 70 66 51 34 19 353 345 344 338 335 342 337
203 195 186 182 185 171 179 181 179 177 169 168 175 176 173 173 179 174 170 157 145 143 140 135 126 117 108 99 82 53 43 38 27 313 334 337 333 336 329 329 333 327 321
218 207 188 185 177 172 176 179 178 172 172 174 179 178 175 177 173 172 169 157 149 148 148 150 143 132 115 81 40 25 16 356 333 299 295 311 312 320 320 314 313 314 314
218 214 204 196 180 174 175 175 175 172 175 178 176 176 178 174 176 174 166 157 157 159 162 160 156 150 145 20 333 337 340 352 351 355 12 4 350 347 341 328 326 323 323
205 220 214 204 184 183 179 172 174 176 176 177 173 176 179 175 180 179 174 171 169 171 175 183 185 187 214 301 312 314 336 1 4 33 3 355 349 342 336 338 325 318 321
205 202 200 201 193 181 167 168 170 172 170 167 169 172 176 181 182 184 185 178 175 172 179 193 196 200 197 264 281 285 295 320 356 353 348 342 340 338 336 336 337 331 323
188 183 165 157 141 129 91 112 156 161 162 159 165 171 179 180 186 189 191 184 177 178 180 179 180 179 207 257 268 269 269 258 296 328 332 333 336 338 333 327 322 318 315
164 155 152 145 153 163 157 254 232 170 169 164 171 177 179 178 184 190 190 193 189 188 181 176 179 194 228 261 260 269 242 234 280 306 328 330 328 322 324 321 321 320 321
172 160 166 159 161 173 177 180 179 194 191 181 179 184 182 180 181 186 190 197 188 182 179 176 197 207 238 268 261 254 238 244 275 300 315 323 326 325 320 318 322 327 326
177 163 162 167 167 160 165 173 184 208 211 191 194 187 183 182 188 185 185 183 181 180 179 184 206 214 223 241 252 248 244 248 263 286 311 323 324 322 317 313 316 319 319
168 156 157 163 166 162 167 178 179 181 185 193 197 192 190 189 194 190 192 190 187 183 181 197 205 219 230 243 251 273 262 250 267 295 312 314 313 311 307 310 311 316 318
158 168 172 177 178 165 163 160 146 178 188 199 205 204 203 197 194 191 195 193 194 189 210 216 222 227 235 245 261 270 282 267 277 284 293 301 304 306 303 309 314 317 318
191 184 178 187 186 166 175 175 159 151 170 175 185 194 199 196 192 192 191 192 189 201 222 226 231 236 239 250 264 275 281 273 269 267 278 294 303 304 306 308 312 315 317
180 185 192 197 167 161 159 149 136 153 160 152 169 181 179 180 181 186 193 195 199 213 224 227 232 234 245 257 266 268 269 269 263 260 275 293 302 303 303 307 311 312 310
190 183 182 177 157 148 149 147 152 156 159 168 174 172 173 174 174 180 191 200 216 223 220 223 228 241 252 259 264 260 258 257 252 254 271 292 299 301 304 309 312 312 310
188 197 192 192 161 154 154 159 159 163 169 175 179 179 181 178 188 195 197 204 209 212 216 227 237 247 261 267 260 251 249 256 249 254 268 286 295 302 307 307 308 308 307
181 191 175 167 161 159 168 164 164 168 178 176 170 177 184 187 190 184 193 201 205 217 226 238 242 252 262 257 255 254 255 253 251 252 263 283 294 304 308 307 309 310 309
179 177 172 171 166 164 164 167 166 172 175 175 174 173 182 189 185 195 202 204 210 223 236 243 249 261 260 250 261 268 260 257 254 245 261 283 292 305 308 308 310 310 309
162 158 162 161 168 169 168 166 169 170 171 172 175 178 183 190 199 210 212 215 223 234 239 244 256 250 239 251 273 278 269 257 247 244 261 270 292 306 307 305 307 307 307
164 165 160 165 166 165 162 168 169 171 173 177 179 182 185 196 207 215 223 230 235 240 243 244 242 236 249 261 269 272 269 281 254 247 266 273 291 302 299 300 304 309 308
166 160 163 164 161 164 169 170 172 174 175 177 178 182 185 200 215 230 233 226 221 227 228 227 231 243 258 271 280 279 288 269 252 248 261 277 287 297 297 300 307 308 307
Height
786 789 795 798 801 804 808 812 816 819 820 820 824 822 822 830 834 837 838 839 840 839 840 840 842 842 842 842 842 842 841 841 841 846 846 845 844 842 840 838 836 835 834
781 782 784 791 799 803 807 809 812 815 818 818 819 821 821 823 829 835 837 839 840 842 842 842 843 844 844 844 844 843 843 843 845 846 846 846 844 843 841 840 838 837 836
775 777 778 777 786 794 802 805 808 812 816 818 817 820 823 823 827 833 835 837 839 842 843 845 845 846 846 846 846 846 846 846 847 847 848 848 846 844 843 841 839 838 837
770 771 772 776 780 787 796 803 805 808 811 815 816 819 823 825 828 833 834 835 838 841 843 845 847 849 849 848 847 848 848 847 848 848 848 848 847 845 844 843 840 839 837
760 762 764 771 778 782 789 799 803 806 807 812 816 818 822 826 828 832 837 838 840 841 845 847 848 850 850 849 850 849 850 850 849 850 850 848 848 847 845 844 842 839 836
749 753 763 770 774 776 783 790 798 802 803 809 813 817 821 826 830 834 835 838 839 841 845 847 849 851 851 850 850 850 850 851 851 851 851 850 850 848 847 845 842 839 836
751 755 761 763 769 769 778 786 793 795 800 807 812 817 820 824 828 832 836 838 838 842 845 849 850 851 851 851 851 851 850 850 850 852 851 850 849 848 846 844 842 839 836
749 757 758 760 759 764 773 782 789 793 798 805 812 817 818 820 824 829 833 835 836 841 844 848 849 850 852 852 852 851 850 849 849 850 850 849 848 846 844 843 840 838 834
746 752 754 758 759 762 764 773 782 790 797 802 807 813 818 820 824 828 831 834 836 840 843 845 848 850 851 851 851 851 850 850 848 848 847 846 845 844 842 841 838 836 831
739 746 752 758 754 759 766 770 779 785 792 801 804 809 816 820 822 825 829 833 835 838 842 845 847 848 850 850 850 849 849 850 848 847 847 845 843 842 841 840 838 835 832
733 740 748 756 761 768 772 776 778 787 793 799 805 808 812 818 822 826 828 831 833 836 839 842 844 845 847 847 847 848 849 848 847 846 845 844 844 842 840 838 836 835 832
731 741 743 749 756 764 772 775 789 787 792 795 804 811 814 818 823 827 829 832 834 836 836 839 840 842 844 845 845 846 846 846 847 846 844 843 842 839 838 836 834 832 830
729 731 743 746 751 751 747 767 787 789 794 795 802 812 816 819 823 827 830 831 831 834 835 834 839 841 842 842 842 843 844 845 845 844 843 841 840 838 835 833 832 829 826
719 723 730 739 745 742 742 752 759 773 797 799 800 808 811 814 818 823 828 831 830 833 836 836 839 838 840 840 841 841 842 843 843 842 840 839 837 836 834 832 829 826 822
720 724 729 737 742 746 750 747 760 767 767 789 797 801 804 807 810 815 822 825 828 830 834 836 839 839 839 838 839 839 839 839 840 839 837 836 835 833 830 829 827 823 820
724 727 731 735 738 740 747 753 759 764 766 782 792 795 798 804 809 814 820 824 827 828 833 834 834 836 836 837 837 836 836 836 836 835 834 834 832 830 828 826 823 820 816
724 726 730 733 735 737 744 750 753 766 773 781 788 792 797 799 807 814 820 823 826 828 832 831 831 832 832 833 834 833 832 833 831 831 831 830 829 827 826 823 820 816 812
726 727 728 728 731 735 741 743 738 749 770 779 784 790 795 800 806 812 816 821 823 823 829 827 826 828 828 829 830 830 829 828 828 828 828 827 826 824 822 819 817 814 810
725 727 728 729 731 734 738 741 738 755 767 773 781 790 792 798 804 809 813 816 817 821 823 821 822 823 824 826 826 825 825 825 825 824 824 823 822 821 818 816 813 810 808
724 726 727 728 730 735 740 743 749 757 765 774 780 784 790 795 800 804 808 811 814 817 817 817 818 820 821 821 820 820 819 819 819 819 819 819 818 817 814 812 809 806 804
722 724 724 728 732 735 740 745 751 758 765 771 776 780 784 790 797 800 802 805 809 813 812 813 815 816 816 815 815 815 815 814 814 815 814 814 814 813 811 808 806 803 800
721 726 727 728 731 736 741 745 750 755 764 768 772 777 783 790 793 795 799 802 804 806 808 809 810 811 811 810 810 810 810 809 810 810 810 810 810 809 807 805 802 799 797
720 723 726 728 732 737 743 748 751 756 761 766 770 775 781 785 788 792 795 797 799 801 803 804 804 805 805 805 805 805 805 806 806 806 806 807 807 805 803 801 798 796 793
715 719 723 728 734 739 742 746 750 755 759 764 768 771 775 779 783 787 790 791 793 796 798 798 798 798 800 800 800 800 799 800 800 801 802 803 803 802 800 798 795 793 790
710 715 721 727 732 735 740 745 749 753 758 762 765 767 770 776 780 782 784 786 788 790 791 792 792 793 795 795 795 795 796 796 796 797 797 798 798 797 796 794 792 789 787
710 715 720 725 729 734 739 743 747 751 755 758 761 764 768 772 775 778 780 781 782 784 786 787 789 789 790 790 790 791 791 791 792 793 793 794 795 794 793 791 788 786 784